Regional Weather Roundup
Issued by NWS

Home | Current Version | Previous Version | Text Only | Print | Product List | Glossary Off
Versions: 1 2 3 4 5 6 7 8 9 10 11 12 13 14 15 16 17 18 19 20 21 22 23 24 25 26 27 28 29 30 31 32 33 34 35 36 37 38 39 40 41 42 43 44 45 46 47 48 49 50

000
ASUS43 KDMX 300203
RWRIA

WEATHER ROUNDUP FOR IOWA
NATIONAL WEATHER SERVICE DES MOINES IA
900 PM CDT FRI APR 29 2016

NOTE: "FAIR" INDICATES FEW OR NO CLOUDS BELOW 12,000 FEET WITH NO
SIGNIFICANT WEATHER AND/OR OBSTRUCTIONS TO VISIBILITY.

* - THESE STATIONS ARE NOT NWS STATIONS...THUS NOT UNDER NWS
QUALITY CONTROL.  THEY ALSO DO NOT REPORT WEATHER SUCH
AS PRECIPITATION OR FOG.

IAZ001>003-012>014-020>022-031>034-043>046-300300-
   NORTHWEST IOWA

CITY           SKY/WX    TMP DP  RH WIND       PRES   REMARKS
CARROLL *      CLOUDY    46  43  87 E12G17    30.00F
CHEROKEE *     CLOUDY    44  42  91 E9        30.04R
DENISON *      CLOUDY    45  41  87 E12G18    29.99S
LE MARS *      CLOUDY    46  41  81 E8        30.04S
ORANGE CITY *  CLEAR     45  41  87 E7        30.04R
SHELDON *      CLOUDY    46  43  87 E10       30.03R
SIOUX CITY     CLOUDY    47  39  74 E12       30.02S
SPENCER        CLOUDY    45  38  76 E12       30.06S
STORM LAKE *   CLOUDY    45  41  87 E16       30.03S
$$

IAZ055>058-069>071-079>083-090>094-300300-
   SOUTHWEST IOWA

CITY           SKY/WX    TMP DP  RH WIND       PRES   REMARKS
ATLANTIC *     CLOUDY    46  43  87 NE14      29.97S
AUDUBON *      CLOUDY    46  41  81 NE13G21   30.00S
CLARINDA *       N/A    N/A N/A N/A MISG        N/A
COUNCIL BLFS * CLOUDY    46  43  87 NE16      29.95F
CRESTON *      CLOUDY    46  43  87 E16G25    29.95S
HARLAN  *      CLOUDY    46  43  87 E10G20    30.02S
LAMONI         CLOUDY    47  44  90 E14G22    29.93F
RED OAK *      CLOUDY    48  45  87 NE18G26   29.94S
SHENANDOAH *   CLOUDY    50  46  87 E15G22    29.93F
$$

IAZ047>049-059>061-072>074-084-300300-
   CENTRAL IOWA

CITY           SKY/WX    TMP DP  RH WIND       PRES   REMARKS
AMES           CLOUDY    47  41  80 E13       30.03F
ANKENY *       CLOUDY    48  43  81 NE12      30.00F
BOONE *        CLOUDY    46  43  87 E16       30.01F
CHARITON *     CLOUDY    48  43  81 E14       29.96F
DES MOINES     CLOUDY    49  40  71 E12       29.99F
GRINNELL*      CLOUDY    46  43  87 E14G20    30.04F
KNOXVILLE *    CLOUDY    48  43  81 E13G21    29.98F
MARSHALLTOWN   CLOUDY    47  41  80 E15       30.04F
NEWTON *       CLOUDY    48  45  87 E12G18    30.02F
PELLA *        CLOUDY    48  42  80 E8        30.02F
$$

IAZ004>006-015-016-023>025-035-036-300300-
   NORTH CENTRAL IOWA

CITY           SKY/WX    TMP DP  RH WIND       PRES   REMARKS
ALGONA *       CLOUDY    46  41  81 E9        30.07S
CLARION *      CLOUDY    46  41  81 E10       30.06F
ESTHERVILLE    CLOUDY    44  40  85 E9        30.06S
FORT DODGE *   CLOUDY    45  36  70 E13       30.05S
MASON CITY     CLOUDY    46  41  82 E7        30.09R
FOREST CITY *  CLOUDY    45  41  87 E3        30.08R
WEBSTER CITY * CLOUDY    46  41  81 E13       30.03S
IOWA FALLS *   CLOUDY    46  41  81 E9        30.06F
$$

IAZ007>011-017>019-026>030-037>042-050>054-066-300300-
   NORTHEAST IOWA

CITY           SKY/WX    TMP DP  RH WIND       PRES   REMARKS
CEDAR RAPIDS   CLOUDY    47  42  83 E10       30.07S
CHARLES CITY * CLOUDY    46  43  87 E8        30.09R
CLINTON *      CLOUDY    47  41  80 E7        30.11
DECORAH *      CLOUDY    48  39  71 CALM      30.09S
DUBUQUE        CLOUDY    46  40  79 E7        30.10R
MONTICELLO *   CLOUDY    48  41  76 VRB6      30.10R
OELWEIN *      CLOUDY    48  41  76 E8        30.10R
WATERLOO       CLOUDY    47  40  76 E8        30.08S
$$

IAZ064-065-067-068-078-300300-
   EAST CENTRAL IOWA

CITY           SKY/WX    TMP DP  RH WIND       PRES   REMARKS
DAVENPORT      CLOUDY    48  41  76 NE14      30.09F
IOWA CITY      CLOUDY    49  41  74 E10       30.09S
MT. PLEASANT * CLOUDY    52  46  82 NE9       30.05R
MUSCATINE *    CLOUDY    50  43  76 E8        30.08R
QUAD CITIES    CLOUDY    50  41  71 E13       30.08S
$$

IAZ062-063-075>077-085>089-095>099-300300-
   SOUTHEAST IOWA

CITY           SKY/WX    TMP DP  RH WIND       PRES   REMARKS
BURLINGTON     CLOUDY    50  44  80 NE12      30.04S
FAIRFIELD *    CLOUDY    50  43  76 E10       30.03F
FORT MADISON * CLOUDY    48  45  87 E9        30.05R
KEOKUK *       CLOUDY    52  46  82 NE10      30.03R
OSKALOOSA *    CLOUDY    48  45  87 E10       30.02F
OTTUMWA        CLOUDY    49  43  80 E12       30.01F
WASHINGTON *   CLOUDY    48  46  93 E12       30.06F
$$

ABBREVIATIONS USED IN REMARKS
   TC - TEMPERATURES IN CELSIUS
  WCI - WIND CHILL INDEX
   HX - HEAT INDEX
  VSB - VISIBILITY
$$




USA.gov is the U.S. government's official web portal to all federal, state and local government web resources and services.